Year,Month,Day,Hour,Minute,Value (Times are PST for temperature in C)
2016,08,05,00,00,15.40
2016,08,05,00,01,15.30
2016,08,05,00,02,15.30
2016,08,05,00,03,15.20
2016,08,05,00,04,15.20
2016,08,05,00,05,15.10
2016,08,05,00,06,15.10
2016,08,05,00,07,15.10
2016,08,05,00,08,15.00
2016,08,05,00,09,15.00
2016,08,05,00,10,15.00
2016,08,05,00,11,14.90
2016,08,05,00,12,14.90
2016,08,05,00,13,14.90
2016,08,05,00,14,14.90
2016,08,05,00,15,14.80
2016,08,05,00,16,14.80
2016,08,05,00,17,14.80
2016,08,05,00,18,14.80
2016,08,05,00,19,14.80
2016,08,05,00,20,14.70
2016,08,05,00,21,14.70
2016,08,05,00,22,14.80
2016,08,05,00,23,14.80
2016,08,05,00,24,14.80
2016,08,05,00,25,14.80
2016,08,05,00,26,14.80
2016,08,05,00,27,14.80
2016,08,05,00,28,14.90
2016,08,05,00,29,14.90
2016,08,05,00,30,14.90
2016,08,05,00,31,14.90
2016,08,05,00,32,15.00
2016,08,05,00,33,15.10
2016,08,05,00,34,15.10
2016,08,05,00,35,15.20
2016,08,05,00,36,15.20
2016,08,05,00,37,15.30
2016,08,05,00,38,15.40
2016,08,05,00,39,15.40
2016,08,05,00,40,15.50
2016,08,05,00,41,15.50
2016,08,05,00,42,15.60
2016,08,05,00,43,15.70
2016,08,05,00,44,15.70
2016,08,05,00,45,15.80
2016,08,05,00,46,15.80
2016,08,05,00,47,15.80
2016,08,05,00,48,15.90
2016,08,05,00,49,15.90
2016,08,05,00,50,15.90
2016,08,05,00,51,15.90
2016,08,05,00,52,15.90
2016,08,05,00,53,15.90
2016,08,05,00,54,15.90
2016,08,05,00,55,15.90
2016,08,05,00,56,15.90
2016,08,05,00,57,16.00
2016,08,05,00,58,15.90
2016,08,05,00,59,15.90
2016,08,05,01,00,15.90
2016,08,05,01,01,15.90
2016,08,05,01,02,15.90
2016,08,05,01,03,15.90
2016,08,05,01,04,15.90
2016,08,05,01,05,15.90
2016,08,05,01,06,15.90
2016,08,05,01,07,15.90
2016,08,05,01,08,15.90
2016,08,05,01,09,15.90
2016,08,05,01,10,15.90
2016,08,05,01,11,15.90
2016,08,05,01,12,15.90
2016,08,05,01,13,15.90
2016,08,05,01,14,15.90
2016,08,05,01,15,15.90
2016,08,05,01,16,15.90
2016,08,05,01,17,15.90
2016,08,05,01,18,15.90
2016,08,05,01,19,15.90
2016,08,05,01,20,15.90
2016,08,05,01,21,15.90
2016,08,05,01,22,15.90
2016,08,05,01,23,15.90
2016,08,05,01,24,15.90
2016,08,05,01,25,15.90
2016,08,05,01,26,15.90
2016,08,05,01,27,15.90
2016,08,05,01,28,15.90
2016,08,05,01,29,15.90
2016,08,05,01,30,15.90
2016,08,05,01,31,15.90
2016,08,05,01,32,15.80
2016,08,05,01,33,15.80
2016,08,05,01,34,15.80
2016,08,05,01,35,15.80
2016,08,05,01,36,15.80
2016,08,05,01,37,15.80
2016,08,05,01,38,15.70
2016,08,05,01,39,15.70
2016,08,05,01,40,15.70
2016,08,05,01,41,15.70
2016,08,05,01,42,15.60
2016,08,05,01,43,15.60
2016,08,05,01,44,15.60
2016,08,05,01,45,15.50
2016,08,05,01,46,15.50
2016,08,05,01,47,15.50
2016,08,05,01,48,15.50
2016,08,05,01,49,15.50
2016,08,05,01,50,15.50
2016,08,05,01,51,15.50
2016,08,05,01,52,15.50
2016,08,05,01,53,15.40
2016,08,05,01,54,15.40
2016,08,05,01,55,15.40
2016,08,05,01,56,15.40
2016,08,05,01,57,15.40
2016,08,05,01,58,15.40
2016,08,05,01,59,15.40
2016,08,05,02,00,15.40
2016,08,05,02,01,15.40
2016,08,05,02,02,15.30
2016,08,05,02,03,15.30
2016,08,05,02,04,15.30
2016,08,05,02,05,15.30
2016,08,05,02,06,15.20
2016,08,05,02,07,15.20
2016,08,05,02,08,15.10
2016,08,05,02,09,15.10
2016,08,05,02,10,15.10
2016,08,05,02,11,15.00
2016,08,05,02,12,15.00
2016,08,05,02,13,14.90
2016,08,05,02,14,14.90
2016,08,05,02,15,14.90
2016,08,05,02,16,14.90
2016,08,05,02,17,14.90
2016,08,05,02,18,14.90
2016,08,05,02,19,14.90
2016,08,05,02,20,14.90
2016,08,05,02,21,14.90
2016,08,05,02,22,14.80
2016,08,05,02,23,14.80
2016,08,05,02,24,14.80
2016,08,05,02,25,14.80
2016,08,05,02,26,14.80
2016,08,05,02,27,14.80
2016,08,05,02,28,14.80
2016,08,05,02,29,14.80
2016,08,05,02,30,14.80
2016,08,05,02,31,14.80
2016,08,05,02,32,14.80
2016,08,05,02,33,14.80
2016,08,05,02,34,14.80
2016,08,05,02,35,14.70
2016,08,05,02,36,14.70
2016,08,05,02,37,14.70
2016,08,05,02,38,14.70
2016,08,05,02,39,14.70
2016,08,05,02,40,14.60
2016,08,05,02,41,14.60
2016,08,05,02,42,14.60
2016,08,05,02,43,14.60
2016,08,05,02,44,14.50
2016,08,05,02,45,14.50
2016,08,05,02,46,14.50
2016,08,05,02,47,14.50
2016,08,05,02,48,14.50
2016,08,05,02,49,14.40
2016,08,05,02,50,14.40
2016,08,05,02,51,14.40
2016,08,05,02,52,14.40
2016,08,05,02,53,14.30
2016,08,05,02,54,14.30
2016,08,05,02,55,14.30
2016,08,05,02,56,14.30
2016,08,05,02,57,14.30
2016,08,05,02,58,14.20
2016,08,05,02,59,14.20
2016,08,05,03,00,14.20
2016,08,05,03,01,14.20
2016,08,05,03,02,14.20
2016,08,05,03,03,14.10
2016,08,05,03,04,14.10
2016,08,05,03,05,14.10
2016,08,05,03,06,14.10
2016,08,05,03,07,14.10
2016,08,05,03,08,14.00
2016,08,05,03,09,14.00
2016,08,05,03,10,13.90
2016,08,05,03,11,13.90
2016,08,05,03,12,13.90
2016,08,05,03,13,13.80
2016,08,05,03,14,13.80
2016,08,05,03,15,13.80
2016,08,05,03,16,13.80
2016,08,05,03,17,13.80
2016,08,05,03,18,13.80
2016,08,05,03,19,13.80
2016,08,05,03,20,13.70
2016,08,05,03,21,13.70
2016,08,05,03,22,13.70
2016,08,05,03,23,13.70
2016,08,05,03,24,13.70
2016,08,05,03,25,13.70
2016,08,05,03,26,13.70
2016,08,05,03,27,13.70
2016,08,05,03,28,13.70
2016,08,05,03,29,13.70
2016,08,05,03,30,13.70
2016,08,05,03,31,13.70
2016,08,05,03,32,13.60
2016,08,05,03,33,13.60
2016,08,05,03,34,13.60
2016,08,05,03,35,13.60
2016,08,05,03,36,13.60
2016,08,05,03,37,13.60
2016,08,05,03,38,13.60
2016,08,05,03,39,13.60
2016,08,05,03,40,13.50
2016,08,05,03,41,13.50
2016,08,05,03,42,13.40
2016,08,05,03,43,13.40
2016,08,05,03,44,13.40
2016,08,05,03,45,13.40
2016,08,05,03,46,13.30
2016,08,05,03,47,13.30
2016,08,05,03,48,13.30
2016,08,05,03,49,13.30
2016,08,05,03,50,13.30
2016,08,05,03,51,13.30
2016,08,05,03,52,13.30
2016,08,05,03,53,13.20
2016,08,05,03,54,13.20
2016,08,05,03,55,13.20
2016,08,05,03,56,13.20
2016,08,05,03,57,13.20
2016,08,05,03,58,13.10
2016,08,05,03,59,13.10
2016,08,05,04,00,13.10
2016,08,05,04,01,13.10
2016,08,05,04,02,13.00
2016,08,05,04,03,13.00
2016,08,05,04,04,13.00
2016,08,05,04,05,12.90
2016,08,05,04,06,12.90
2016,08,05,04,07,12.90
2016,08,05,04,08,12.80
2016,08,05,04,09,12.80
2016,08,05,04,10,12.80
2016,08,05,04,11,12.80
2016,08,05,04,12,12.80
2016,08,05,04,13,12.80
2016,08,05,04,14,12.80
2016,08,05,04,15,12.80
2016,08,05,04,16,12.80
2016,08,05,04,17,12.80
2016,08,05,04,18,12.80
2016,08,05,04,19,12.80
2016,08,05,04,20,12.70
2016,08,05,04,21,12.70
2016,08,05,04,22,12.70
2016,08,05,04,23,12.70
2016,08,05,04,24,12.70
2016,08,05,04,25,12.60
2016,08,05,04,26,12.60
2016,08,05,04,27,12.60
2016,08,05,04,28,12.60
2016,08,05,04,29,12.60
2016,08,05,04,30,12.60
2016,08,05,04,31,12.60
2016,08,05,04,32,12.60
2016,08,05,04,33,12.60
2016,08,05,04,34,12.60
2016,08,05,04,35,12.60
2016,08,05,04,36,12.60
2016,08,05,04,37,12.60
2016,08,05,04,38,12.60
2016,08,05,04,39,12.60
2016,08,05,04,40,12.60
2016,08,05,04,41,12.60
2016,08,05,04,42,12.50
2016,08,05,04,43,12.50
2016,08,05,04,44,12.50
2016,08,05,04,45,12.50
2016,08,05,04,46,12.50
2016,08,05,04,47,12.50
2016,08,05,04,48,12.50
2016,08,05,04,49,12.50
2016,08,05,04,50,12.50
2016,08,05,04,51,12.50
2016,08,05,04,52,12.50
2016,08,05,04,53,12.60
2016,08,05,04,54,12.70
2016,08,05,04,55,12.70
2016,08,05,04,56,12.80
2016,08,05,04,57,12.80
2016,08,05,04,58,12.70
2016,08,05,04,59,12.70
2016,08,05,05,00,12.70
2016,08,05,05,01,12.60
2016,08,05,05,02,12.60
2016,08,05,05,03,12.60
2016,08,05,05,04,12.50
2016,08,05,05,05,12.40
2016,08,05,05,06,12.40
2016,08,05,05,07,12.40
2016,08,05,05,08,12.40
2016,08,05,05,09,12.40
2016,08,05,05,10,12.40
2016,08,05,05,11,12.50
2016,08,05,05,12,12.50
2016,08,05,05,13,12.50
2016,08,05,05,14,12.60
2016,08,05,05,15,12.60
2016,08,05,05,16,12.60
2016,08,05,05,17,12.60
2016,08,05,05,18,12.60
2016,08,05,05,19,12.60
2016,08,05,05,20,12.60
2016,08,05,05,21,12.60
2016,08,05,05,22,12.60
2016,08,05,05,23,12.60
2016,08,05,05,24,12.60
2016,08,05,05,25,12.60
2016,08,05,05,26,12.60
2016,08,05,05,27,12.60
2016,08,05,05,28,12.60
2016,08,05,05,29,12.60
2016,08,05,05,30,12.60
2016,08,05,05,31,12.60
2016,08,05,05,32,12.70
2016,08,05,05,33,12.70
2016,08,05,05,34,12.70
2016,08,05,05,35,12.70
2016,08,05,05,36,12.70
2016,08,05,05,37,12.70
2016,08,05,05,38,12.70
2016,08,05,05,39,12.70
2016,08,05,05,40,12.70
2016,08,05,05,41,12.60
2016,08,05,05,42,12.60
2016,08,05,05,43,12.60
2016,08,05,05,44,12.60
2016,08,05,05,45,12.60
2016,08,05,05,46,12.60
2016,08,05,05,47,12.60
2016,08,05,05,48,12.60
2016,08,05,05,49,12.60
2016,08,05,05,50,12.60
2016,08,05,05,51,12.60
2016,08,05,05,52,12.60
2016,08,05,05,53,12.60
2016,08,05,05,54,12.70
2016,08,05,05,55,12.70
2016,08,05,05,56,12.70
2016,08,05,05,57,12.70
2016,08,05,05,58,12.70
2016,08,05,05,59,12.70
2016,08,05,06,00,12.70
2016,08,05,06,01,12.70
2016,08,05,06,02,12.70
2016,08,05,06,03,12.70
2016,08,05,06,04,12.70
2016,08,05,06,05,12.70
2016,08,05,06,06,12.70
2016,08,05,06,07,12.70
2016,08,05,06,08,12.70
2016,08,05,06,09,12.60
2016,08,05,06,10,12.70
2016,08,05,06,11,12.60
2016,08,05,06,12,12.60
2016,08,05,06,13,12.60
2016,08,05,06,14,12.60
2016,08,05,06,15,12.60
2016,08,05,06,16,12.60
2016,08,05,06,17,12.60
2016,08,05,06,18,12.60
2016,08,05,06,19,12.60
2016,08,05,06,20,12.50
2016,08,05,06,21,12.50
2016,08,05,06,22,12.50
2016,08,05,06,23,12.50
2016,08,05,06,24,12.40
2016,08,05,06,25,12.40
2016,08,05,06,26,12.40
2016,08,05,06,27,12.40
2016,08,05,06,28,12.40
2016,08,05,06,29,12.40
2016,08,05,06,30,12.40
2016,08,05,06,31,12.50
2016,08,05,06,32,12.60
2016,08,05,06,33,12.70
2016,08,05,06,34,12.80
2016,08,05,06,35,12.90
2016,08,05,06,36,13.00
2016,08,05,06,37,13.10
2016,08,05,06,38,13.10
2016,08,05,06,39,13.20
2016,08,05,06,40,13.30
2016,08,05,06,41,13.40
2016,08,05,06,42,13.50
2016,08,05,06,43,13.60
2016,08,05,06,44,13.70
2016,08,05,06,45,13.70
2016,08,05,06,46,13.70
2016,08,05,06,47,13.80
2016,08,05,06,48,13.80
2016,08,05,06,49,13.90
2016,08,05,06,50,13.90
2016,08,05,06,51,13.90
2016,08,05,06,52,13.90
2016,08,05,06,53,13.90
2016,08,05,06,54,13.90
2016,08,05,06,55,13.90
2016,08,05,06,56,13.90
2016,08,05,06,57,14.00
2016,08,05,06,58,14.00
2016,08,05,06,59,14.00
2016,08,05,07,00,14.10
2016,08,05,07,01,14.10
2016,08,05,07,02,14.10
2016,08,05,07,03,14.00
2016,08,05,07,04,14.00
2016,08,05,07,05,14.00
2016,08,05,07,06,13.90
2016,08,05,07,07,13.90
2016,08,05,07,08,13.90
2016,08,05,07,09,13.90
2016,08,05,07,10,13.90
2016,08,05,07,11,13.90
2016,08,05,07,12,13.90
2016,08,05,07,13,13.90
2016,08,05,07,14,13.90
2016,08,05,07,15,13.90
2016,08,05,07,16,13.90
2016,08,05,07,17,13.90
2016,08,05,07,18,13.90
2016,08,05,07,19,13.90
2016,08,05,07,20,13.90
2016,08,05,07,21,13.90
2016,08,05,07,22,13.90
2016,08,05,07,23,14.00
2016,08,05,07,24,14.10
2016,08,05,07,25,14.10
2016,08,05,07,26,14.20
2016,08,05,07,27,14.30
2016,08,05,07,28,14.30
2016,08,05,07,29,14.40
2016,08,05,07,30,14.50
2016,08,05,07,31,14.60
2016,08,05,07,32,14.60
2016,08,05,07,33,14.70
2016,08,05,07,34,14.70
2016,08,05,07,35,14.80
2016,08,05,07,36,14.90
2016,08,05,07,37,14.90
2016,08,05,07,38,15.00
2016,08,05,07,39,15.00
2016,08,05,07,40,15.10
2016,08,05,07,41,15.20
2016,08,05,07,42,15.20
2016,08,05,07,43,15.30
2016,08,05,07,44,15.30
2016,08,05,07,45,15.30
2016,08,05,07,46,15.30
2016,08,05,07,47,15.30
2016,08,05,07,48,15.40
2016,08,05,07,49,15.40
2016,08,05,07,50,15.40
2016,08,05,07,51,15.40
2016,08,05,07,52,15.40
2016,08,05,07,53,15.40
2016,08,05,07,54,15.40
2016,08,05,07,55,15.40
2016,08,05,07,56,15.40
2016,08,05,07,57,15.50
2016,08,05,07,58,15.50
2016,08,05,07,59,15.50
2016,08,05,08,00,15.60
2016,08,05,08,01,15.70
2016,08,05,08,02,15.70
2016,08,05,08,03,15.70
2016,08,05,08,04,15.70
2016,08,05,08,05,15.70
2016,08,05,08,06,15.80
2016,08,05,08,07,15.80
2016,08,05,08,08,15.80
2016,08,05,08,09,15.80
2016,08,05,08,10,15.80
2016,08,05,08,11,15.70
2016,08,05,08,12,15.70
2016,08,05,08,13,15.70
2016,08,05,08,14,15.70
2016,08,05,08,15,15.60
2016,08,05,08,16,15.60
2016,08,05,08,17,15.60
2016,08,05,08,18,15.60
2016,08,05,08,19,15.60
2016,08,05,08,20,15.60
2016,08,05,08,21,15.60
2016,08,05,08,22,15.60
2016,08,05,08,23,15.50
2016,08,05,08,24,15.60
2016,08,05,08,25,15.60
2016,08,05,08,26,15.60
2016,08,05,08,27,15.60
2016,08,05,08,28,15.70
2016,08,05,08,29,15.70
2016,08,05,08,30,15.70
2016,08,05,08,31,15.70
2016,08,05,08,32,15.70
2016,08,05,08,33,15.80
2016,08,05,08,34,15.80
2016,08,05,08,35,15.80
2016,08,05,08,36,15.80
2016,08,05,08,37,15.80
2016,08,05,08,38,15.80
2016,08,05,08,39,15.80
2016,08,05,08,40,15.90
2016,08,05,08,41,15.90
2016,08,05,08,42,15.90
2016,08,05,08,43,15.90
2016,08,05,08,44,15.90
2016,08,05,08,45,15.90
2016,08,05,08,46,15.90
2016,08,05,08,47,16.00
2016,08,05,08,48,16.00
2016,08,05,08,49,16.00
2016,08,05,08,50,16.10
2016,08,05,08,51,16.10
2016,08,05,08,52,16.10
2016,08,05,08,53,16.10
2016,08,05,08,54,16.10
2016,08,05,08,55,16.10
2016,08,05,08,56,16.20
2016,08,05,08,57,16.20
2016,08,05,08,58,16.20
2016,08,05,08,59,16.20
2016,08,05,09,00,16.30
2016,08,05,09,01,16.30
2016,08,05,09,02,16.30
2016,08,05,09,03,16.30
2016,08,05,09,04,16.30
2016,08,05,09,05,16.30
2016,08,05,09,06,16.30
2016,08,05,09,07,16.30
2016,08,05,09,08,16.40
2016,08,05,09,09,16.40
2016,08,05,09,10,16.40
2016,08,05,09,11,16.50
2016,08,05,09,12,16.50
2016,08,05,09,13,16.60
2016,08,05,09,14,16.60
2016,08,05,09,15,16.70
2016,08,05,09,16,16.70
2016,08,05,09,17,16.70
2016,08,05,09,18,16.80
2016,08,05,09,19,16.80
2016,08,05,09,20,16.80
2016,08,05,09,21,16.80
2016,08,05,09,22,16.80
2016,08,05,09,23,16.80
2016,08,05,09,24,16.70
2016,08,05,09,25,16.70
2016,08,05,09,26,16.60
2016,08,05,09,27,16.60
2016,08,05,09,28,16.60
2016,08,05,09,29,16.60
2016,08,05,09,30,16.50
2016,08,05,09,31,16.40
2016,08,05,09,32,16.40
2016,08,05,09,33,16.40
2016,08,05,09,34,16.40
2016,08,05,09,35,16.40
2016,08,05,09,36,16.40
2016,08,05,09,37,16.40
2016,08,05,09,38,16.50
2016,08,05,09,39,16.50
2016,08,05,09,40,16.50
2016,08,05,09,41,16.50
2016,08,05,09,42,16.50
2016,08,05,09,43,16.50
2016,08,05,09,44,16.50
2016,08,05,09,45,16.50
2016,08,05,09,46,16.60
2016,08,05,09,47,16.60
2016,08,05,09,48,16.60
2016,08,05,09,49,16.70
2016,08,05,11,54,18.70
2016,08,05,11,55,18.70
2016,08,05,11,56,18.70
2016,08,05,11,57,18.70
2016,08,05,11,58,18.70
2016,08,05,11,59,18.70
2016,08,05,12,00,18.80
2016,08,05,12,01,18.90
2016,08,05,12,02,19.00
2016,08,05,12,03,19.00
2016,08,05,12,04,19.10
2016,08,05,12,05,19.20
2016,08,05,12,06,19.20
2016,08,05,12,07,19.30
2016,08,05,12,08,19.30
2016,08,05,12,09,19.30
2016,08,05,12,10,19.20
2016,08,05,12,11,19.10
2016,08,05,12,12,19.00
2016,08,05,12,13,18.90
2016,08,05,12,14,18.90
2016,08,05,12,15,19.00
2016,08,05,12,16,19.00
2016,08,05,12,17,19.00
2016,08,05,12,18,19.00
2016,08,05,12,19,19.00
2016,08,05,12,20,18.90
2016,08,05,12,21,18.90
2016,08,05,12,22,18.90
2016,08,05,12,23,18.90
2016,08,05,12,24,18.90
2016,08,05,12,25,19.00
2016,08,05,12,26,19.00
2016,08,05,12,27,19.10
2016,08,05,12,28,19.20
2016,08,05,12,29,19.20
2016,08,05,12,30,19.30
2016,08,05,12,31,19.30
2016,08,05,12,32,19.30
2016,08,05,12,33,19.40
2016,08,05,12,34,19.40
2016,08,05,12,35,19.40
2016,08,05,12,36,19.40
2016,08,05,12,37,19.30
2016,08,05,12,38,19.30
2016,08,05,12,39,19.20
2016,08,05,12,40,19.20
2016,08,05,12,41,19.10
2016,08,05,12,42,19.10
2016,08,05,12,43,19.10
2016,08,05,12,44,19.10
2016,08,05,12,45,19.00
2016,08,05,12,46,19.00
2016,08,05,12,47,18.90
2016,08,05,12,48,18.90
2016,08,05,12,49,18.90
2016,08,05,12,50,19.10
2016,08,05,12,51,19.20
2016,08,05,12,52,19.20
2016,08,05,12,53,19.30
2016,08,05,12,54,19.30
2016,08,05,12,55,19.20
2016,08,05,12,56,19.20
2016,08,05,12,57,19.20
2016,08,05,12,58,19.20
2016,08,05,12,59,19.30
2016,08,05,13,00,19.50
2016,08,05,13,01,19.60
2016,08,05,13,02,19.60
2016,08,05,13,03,19.60
2016,08,05,13,04,19.60
2016,08,05,13,05,19.70
2016,08,05,13,06,19.70
2016,08,05,13,07,19.70
2016,08,05,13,08,19.60
2016,08,05,13,09,19.60
2016,08,05,13,10,19.60
2016,08,05,13,11,19.50
2016,08,05,13,12,19.40
2016,08,05,13,13,19.30
2016,08,05,13,14,19.20
2016,08,05,13,15,19.10
2016,08,05,13,16,19.10
2016,08,05,13,17,19.00
2016,08,05,13,18,19.00
2016,08,05,13,19,18.90
2016,08,05,13,20,18.90
2016,08,05,13,21,18.90
2016,08,05,13,22,18.90
2016,08,05,13,23,18.90
2016,08,05,13,24,18.90
2016,08,05,13,25,19.00
2016,08,05,13,26,19.00
2016,08,05,13,27,19.10
2016,08,05,13,28,19.10
2016,08,05,13,29,19.20
2016,08,05,13,30,19.40
2016,08,05,13,31,19.50
2016,08,05,13,32,19.60
2016,08,05,13,33,19.60
2016,08,05,13,34,19.50
2016,08,05,13,35,19.40
2016,08,05,13,36,19.50
2016,08,05,13,37,19.50
2016,08,05,13,38,19.50
2016,08,05,13,39,19.50
2016,08,05,13,40,19.40
2016,08,05,13,41,19.40
2016,08,05,13,42,19.30
2016,08,05,13,43,19.30
2016,08,05,13,44,19.40
2016,08,05,13,45,19.50
2016,08,05,13,46,19.60
2016,08,05,13,47,19.70
2016,08,05,13,48,19.70
2016,08,05,13,49,19.60
2016,08,05,13,50,19.50
2016,08,05,13,51,19.40
2016,08,05,13,52,19.30
2016,08,05,13,53,19.30
2016,08,05,13,54,19.20
2016,08,05,13,55,19.10
2016,08,05,13,56,19.10
2016,08,05,13,57,19.00
2016,08,05,13,58,18.90
2016,08,05,13,59,18.80
2016,08,05,14,00,18.80
2016,08,05,14,01,18.70
2016,08,05,14,02,18.60
2016,08,05,14,03,18.60
2016,08,05,14,04,18.60
2016,08,05,14,05,18.50
2016,08,05,14,06,18.40
2016,08,05,14,07,18.40
2016,08,05,14,08,18.30
2016,08,05,14,09,18.30
2016,08,05,14,10,18.30
2016,08,05,14,11,18.30
2016,08,05,14,12,18.30
2016,08,05,14,13,18.20
2016,08,05,14,14,18.20
2016,08,05,14,15,18.20
2016,08,05,14,16,18.10
2016,08,05,14,17,18.10
2016,08,05,14,18,18.00
2016,08,05,14,19,17.90
2016,08,05,14,20,17.80
2016,08,05,14,21,17.80
2016,08,05,14,22,17.70
2016,08,05,14,23,17.60
2016,08,05,14,24,17.50
2016,08,05,14,25,17.40
2016,08,05,14,26,17.30
2016,08,05,14,27,17.30
2016,08,05,14,28,17.30
2016,08,05,14,29,17.30
2016,08,05,14,30,17.20
2016,08,05,14,31,17.20
2016,08,05,14,32,17.20
2016,08,05,14,33,17.20
2016,08,05,14,34,17.20
2016,08,05,14,35,17.10
2016,08,05,14,36,17.10
2016,08,05,14,37,17.10
2016,08,05,14,38,17.00
2016,08,05,14,39,17.00
2016,08,05,14,40,16.90
2016,08,05,14,41,16.80
2016,08,05,14,42,16.80
2016,08,05,14,43,16.80
2016,08,05,14,44,16.70
2016,08,05,14,45,16.70
2016,08,05,14,46,16.60
2016,08,05,14,47,16.50
2016,08,05,14,48,16.30
2016,08,05,14,49,16.30
2016,08,05,14,50,16.20
2016,08,05,14,51,16.00
2016,08,05,14,52,15.70
2016,08,05,14,53,15.50
2016,08,05,14,54,15.30
2016,08,05,14,55,15.10
2016,08,05,14,56,15.00
2016,08,05,14,57,14.90
2016,08,05,14,58,14.80
2016,08,05,14,59,14.70
2016,08,05,15,00,14.70
2016,08,05,15,01,14.60
2016,08,05,15,02,14.70
2016,08,05,15,03,14.70
2016,08,05,15,04,14.60
2016,08,05,15,05,14.60
2016,08,05,15,06,14.60
2016,08,05,15,07,14.60
2016,08,05,15,08,14.60
2016,08,05,15,09,14.50
2016,08,05,15,10,14.50
2016,08,05,15,11,14.50
2016,08,05,15,12,14.50
2016,08,05,15,13,14.40
2016,08,05,15,14,14.40
2016,08,05,15,15,14.50
2016,08,05,15,16,14.50
2016,08,05,15,17,14.50
2016,08,05,15,18,14.50
2016,08,05,15,19,14.50
2016,08,05,15,20,14.50
2016,08,05,15,21,14.50
2016,08,05,15,22,14.60
2016,08,05,15,23,14.70
2016,08,05,15,24,14.80
2016,08,05,15,25,14.80
2016,08,05,15,26,14.80
2016,08,05,15,27,14.90
2016,08,05,15,28,14.90
2016,08,05,15,29,15.10
2016,08,05,15,30,15.20
2016,08,05,15,31,15.40
2016,08,05,15,32,15.40
2016,08,05,15,33,15.50
2016,08,05,15,34,15.50
2016,08,05,15,35,15.70
2016,08,05,15,36,15.80
2016,08,05,15,37,15.80
2016,08,05,15,38,15.80
2016,08,05,15,39,15.80
2016,08,05,15,40,15.80
2016,08,05,15,41,15.90
2016,08,05,15,42,16.00
2016,08,05,15,43,16.10
2016,08,05,15,44,16.20
2016,08,05,15,45,16.30
2016,08,05,15,46,16.40
2016,08,05,15,47,16.40
2016,08,05,15,48,16.30
2016,08,05,15,49,16.20
2016,08,05,15,50,16.10
2016,08,05,15,51,16.00
2016,08,05,15,52,16.00
2016,08,05,15,53,15.90
2016,08,05,15,54,15.90
2016,08,05,15,55,15.80
2016,08,05,15,56,15.80
2016,08,05,15,57,15.80
2016,08,05,15,58,15.80
2016,08,05,15,59,15.90
2016,08,05,16,00,15.90
2016,08,05,16,01,16.00
2016,08,05,16,02,16.10
2016,08,05,16,03,16.10
2016,08,05,16,04,16.10
2016,08,05,16,05,16.10
2016,08,05,16,06,16.10
2016,08,05,16,07,16.10
2016,08,05,16,08,16.10
2016,08,05,16,09,16.10
2016,08,05,16,10,16.10
2016,08,05,16,11,16.20
2016,08,05,16,12,16.20
2016,08,05,16,13,16.30
2016,08,05,16,14,16.40
2016,08,05,16,15,16.50
2016,08,05,16,16,16.60
2016,08,05,16,17,16.70
2016,08,05,16,18,16.80
2016,08,05,16,19,16.90
2016,08,05,16,20,17.00
2016,08,05,16,21,17.20
2016,08,05,16,22,17.40
2016,08,05,16,23,17.60
2016,08,05,16,24,17.70
2016,08,05,16,25,17.80
2016,08,05,16,26,17.90
2016,08,05,16,27,18.00
2016,08,05,16,28,18.10
2016,08,05,16,29,18.20
2016,08,05,16,30,18.30
2016,08,05,16,31,18.40
2016,08,05,16,32,18.50
2016,08,05,16,33,18.60
2016,08,05,16,34,18.70
2016,08,05,16,35,18.80
2016,08,05,16,36,19.00
2016,08,05,16,37,19.20
2016,08,05,16,38,19.30
2016,08,05,16,39,19.40
2016,08,05,16,40,19.40
2016,08,05,16,41,19.40
2016,08,05,16,42,19.40
2016,08,05,16,43,19.30
2016,08,05,16,44,19.40
2016,08,05,16,45,19.40
2016,08,05,16,46,19.40
2016,08,05,16,47,19.40
2016,08,05,16,48,19.40
2016,08,05,16,49,19.30
2016,08,05,16,50,19.30
2016,08,05,16,51,19.30
2016,08,05,16,52,19.30
2016,08,05,16,53,19.30
2016,08,05,16,54,19.30
2016,08,05,16,55,19.30
2016,08,05,16,56,19.20
2016,08,05,16,57,19.20
2016,08,05,16,58,19.00
2016,08,05,16,59,18.90
2016,08,05,17,00,18.90
2016,08,05,17,01,18.80
2016,08,05,17,02,18.80
2016,08,05,17,03,18.70
2016,08,05,17,04,18.60
2016,08,05,17,05,18.40
2016,08,05,17,06,18.30
2016,08,05,17,07,18.30
2016,08,05,17,08,18.20
2016,08,05,17,09,18.10
2016,08,05,17,10,18.10
2016,08,05,17,11,18.00
2016,08,05,17,12,17.90
2016,08,05,17,13,17.90
2016,08,05,17,14,17.80
2016,08,05,17,15,17.80
2016,08,05,17,16,17.80
2016,08,05,17,17,17.90
2016,08,05,17,18,17.90
2016,08,05,17,19,17.90
2016,08,05,17,20,18.00
2016,08,05,17,21,18.10
2016,08,05,17,22,18.10
2016,08,05,17,23,18.10
2016,08,05,17,24,18.10
2016,08,05,17,25,18.20
2016,08,05,17,26,18.20
2016,08,05,17,27,18.20
2016,08,05,17,28,18.20
2016,08,05,17,29,18.20
2016,08,05,17,30,18.30
2016,08,05,17,31,18.30
2016,08,05,17,32,18.40
2016,08,05,17,33,18.40
2016,08,05,17,34,18.50
2016,08,05,17,35,18.70
2016,08,05,17,36,18.80
2016,08,05,17,37,18.90
2016,08,05,17,38,19.10
2016,08,05,17,39,19.20
2016,08,05,17,40,19.40
2016,08,05,17,41,19.40
2016,08,05,17,42,19.50
2016,08,05,17,43,19.50
2016,08,05,17,44,19.60
2016,08,05,17,45,19.60
2016,08,05,17,46,19.50
2016,08,05,17,47,19.50
2016,08,05,17,48,19.50
2016,08,05,17,49,19.40
2016,08,05,17,50,19.40
2016,08,05,17,51,19.40
2016,08,05,17,52,19.40
2016,08,05,17,53,19.40
2016,08,05,17,54,19.40
2016,08,05,17,55,19.40
2016,08,05,17,56,19.30
2016,08,05,17,57,19.20
2016,08,05,17,58,19.10
2016,08,05,17,59,18.90
2016,08,05,18,00,18.70
2016,08,05,18,01,18.60
2016,08,05,18,02,18.50
2016,08,05,18,03,18.30
2016,08,05,18,04,18.20
2016,08,05,18,05,18.00
2016,08,05,18,06,17.90
2016,08,05,18,07,17.80
2016,08,05,18,08,17.80
2016,08,05,18,09,17.70
2016,08,05,18,10,17.70
2016,08,05,18,11,17.60
2016,08,05,18,12,17.60
2016,08,05,18,13,17.50
2016,08,05,18,14,17.40
2016,08,05,18,15,17.40
2016,08,05,18,16,17.30
2016,08,05,18,17,17.30
2016,08,05,18,18,17.30
2016,08,05,18,19,17.30
2016,08,05,18,20,17.30
2016,08,05,18,21,17.30
2016,08,05,18,22,17.20
2016,08,05,18,23,17.10
2016,08,05,18,24,17.10
2016,08,05,18,25,17.10
2016,08,05,18,26,17.10
2016,08,05,18,27,17.00
2016,08,05,18,28,17.00
2016,08,05,18,29,17.00
2016,08,05,18,30,17.00
2016,08,05,18,31,17.00
2016,08,05,18,32,17.00
2016,08,05,18,33,17.00
2016,08,05,18,34,16.90
2016,08,05,18,35,16.90
2016,08,05,18,36,16.90
2016,08,05,18,37,16.80
2016,08,05,18,38,16.80
2016,08,05,18,39,16.80
2016,08,05,18,40,16.80
2016,08,05,18,41,16.80
2016,08,05,18,42,16.80
2016,08,05,18,43,16.80
2016,08,05,18,44,16.80
2016,08,05,18,45,16.80
2016,08,05,18,46,16.80
2016,08,05,18,47,16.80
2016,08,05,18,48,16.80
2016,08,05,18,49,16.80
2016,08,05,18,50,16.80
2016,08,05,18,51,16.80
2016,08,05,18,52,16.80
2016,08,05,18,53,16.80
2016,08,05,18,54,16.80
2016,08,05,18,55,16.80
2016,08,05,18,56,16.90
2016,08,05,18,57,16.90
2016,08,05,18,58,17.00
2016,08,05,18,59,17.00
2016,08,05,19,00,17.10
2016,08,05,19,01,17.10
2016,08,05,19,02,17.20
2016,08,05,19,03,17.20
2016,08,05,19,04,17.20
2016,08,05,19,05,17.30
2016,08,05,19,06,17.30
2016,08,05,19,07,17.30
2016,08,05,19,08,17.40
2016,08,05,19,09,17.50
2016,08,05,19,10,17.50
2016,08,05,19,11,17.60
2016,08,05,19,12,17.60
2016,08,05,19,13,17.60
2016,08,05,19,14,17.60
2016,08,05,19,15,17.60
2016,08,05,19,16,17.60
2016,08,05,19,17,17.60
2016,08,05,19,18,17.60
2016,08,05,19,19,17.60
2016,08,05,19,20,17.60
2016,08,05,19,21,17.60
2016,08,05,19,22,17.50
2016,08,05,19,23,17.50